Location: Hopewell Observatory
(38.8698°N, 77.6988°W)
Time: 18:48:12
(UTC-04:00)

Cosmos 1538 Rocket - Pass Details

Date: 26 May 2018
Orbit: 751 x 793 km, 74.0° (Epoch: 19 June)

Event Time Altitude Azimuth Distance (km) Brightness Sun altitude
Exits shadow 23:24:23 50° 80° (E) 968 4.3 -25.1°
Drops below altitude 10° 23:28:52 10° 28° (NNE) 2,310 6.9 -25.5°
Sets 23:31:19 0° 24° (NNE) 3,247 7.8 -25.7°
